Weather History for KCAK - March, 2014

Change the Weather History Date:

Friday, March 21, 2014

  Actual Average Record
Temperature  
Mean Temperature 35 °F 39 °F  
Max Temperature 46 °F 49 °F 80 °F (2012)
Min Temperature 23 °F 30 °F 8 °F (1986)
Degree Days  
Heating Degree Days 30 26  
Month to date heating degree days 710 615  
Since 1 July heating degree days 5533 5159  
Cooling Degree Days 0 0  
Month to date cooling degree days 0 0  
Year to date cooling degree days 0 0  
Moisture  
Dew Point 27 °F    
Average Humidity 75    
Maximum Humidity 92    
Minimum Humidity 57    
Precipitation  
Precipitation 0.14 in 0.10 in 1.15 in (1955)
Month to date precipitation 0.88 1.92  
Year to date precipitation 4.39 6.84  
Snow  
Snow 1.40 in 0.30 in - ()
Month to date snowfall 6.6 6.3  
Since 1 July snowfall 65.9 42.8  
Snow Depth 0.00 in    
Sea Level Pressure  
Sea Level Pressure 30.03 in    
Wind  
Wind Speed 4 mph (SSE)    
Max Wind Speed 12 mph    
Max Gust Speed 12 mph    
Visibility 7 miles    
Events Snow    
T = Trace of Precipitation, MM = Missing Value Source: NWS Daily Summary

Daily Weather History Graph

Daily Weather History Graph

Search for Another Location

Airport or City:

Trip Planner

Search our weather history database for the weather conditions in past years. The results will help you decide how hot, cold, wet, or windy it might be!

Date:

Astronomy

Mar. 21, 2014 Rise Set
Actual Time 7:27 AM EDT 7:38 PM EDT
Civil Twilight 7:00 AM EDT 8:06 PM EDT
Nautical Twilight 6:28 AM EDT 8:38 PM EDT
Astronomical Twilight 5:55 AM EDT 9:11 PM EDT
Moon No Moon Rise 10:16 AM EDT (3/21)
Length of Visible Light 13h 06m
Length of Day
12h 11m
Waning Gibbous, 75% of the Moon is Illuminated
Mar 21
Waning Gibbous
Mar 23
Last Quarter
Mar 30
New
Apr 7
First Quarter
Apr 15
Full

Hourly Weather History & Observations

Time (EDT) Temp. Windchill Dew Point Humidity Pressure Visibility Wind Dir Wind Speed Gust Speed Precip Events Conditions
12:51 AM 30.0 °F 26.5 °F 25.0 °F 82% 30.06 in 10.0 mi West 3.5 mph - N/A   Mostly Cloudy
1:51 AM 30.0 °F 26.5 °F 24.1 °F 79% 30.06 in 10.0 mi West 3.5 mph - N/A   Partly Cloudy
2:51 AM 28.9 °F - 22.1 °F 76% 30.07 in 10.0 mi Calm Calm - N/A   Clear
3:51 AM 28.0 °F - 22.1 °F 78% 30.06 in 10.0 mi Calm Calm - N/A   Clear
4:51 AM 25.0 °F 18.1 °F 19.9 °F 81% 30.08 in 10.0 mi SSW 5.8 mph - N/A   Clear
5:51 AM 25.0 °F - 19.9 °F 81% 30.07 in 10.0 mi Calm Calm - N/A   Clear
6:51 AM 23.0 °F - 19.0 °F 85% 30.09 in 10.0 mi Calm Calm - N/A   Partly Cloudy
7:51 AM 25.0 °F - 21.0 °F 85% 30.09 in 10.0 mi Calm Calm - N/A   Scattered Clouds
8:51 AM 28.0 °F - 24.1 °F 85% 30.09 in 10.0 mi Calm Calm - N/A   Mostly Cloudy
9:32 AM 30.2 °F 24.3 °F 26.6 °F 86% 30.06 in 2.0 mi SSE 5.8 mph - 0.00 in Snow Light Snow
9:36 AM 30.2 °F 25.4 °F 26.6 °F 86% 30.06 in 0.8 mi SE 4.6 mph - 0.00 in Snow Light Snow
9:51 AM 30.0 °F - 28.0 °F 92% 30.11 in 0.8 mi Calm Calm - 0.02 in Snow Light Snow
10:12 AM 28.4 °F 23.3 °F 26.6 °F 93% 30.09 in 0.5 mi South 4.6 mph - 0.02 in Snow Snow
10:51 AM 28.9 °F 22.8 °F 27.0 °F 92% 30.13 in 0.5 mi SSW 5.8 mph - 0.07 in Snow Snow
11:19 AM 30.2 °F 22.6 °F 24.8 °F 80% 30.09 in 2.0 mi SW 8.1 mph - 0.02 in Snow Light Snow
11:51 AM 32.0 °F 26.4 °F 25.0 °F 75% 30.12 in 2.0 mi SW 5.8 mph - 0.03 in Snow Light Snow
12:51 PM 34.0 °F - 26.1 °F 73% 30.10 in 3.0 mi Calm Calm - 0.02 in   Haze
1:41 PM 35.6 °F - 26.6 °F 70% 30.05 in 5.0 mi Calm Calm - N/A   Haze
1:51 PM 37.9 °F - 26.1 °F 62% 30.08 in 5.0 mi Calm Calm - N/A   Haze
2:51 PM 39.9 °F 36.7 °F 28.0 °F 63% 30.05 in 7.0 mi Variable 4.6 mph - N/A   Mostly Cloudy
3:51 PM 42.6 °F 39.0 °F 28.2 °F 57% 30.02 in 8.0 mi ESE 5.8 mph - N/A   Scattered Clouds
4:51 PM 45.7 °F - 33.4 °F 62% 30.00 in 8.0 mi Calm Calm - N/A   Partly Cloudy
5:51 PM 45.5 °F 42.5 °F 34.3 °F 65% 29.97 in 10.0 mi SE 5.8 mph - N/A   Partly Cloudy
6:51 PM 45.1 °F 42.0 °F 34.9 °F 67% 29.95 in 10.0 mi East 5.8 mph - N/A   Partly Cloudy
7:51 PM 42.8 °F 39.3 °F 34.9 °F 74% 29.93 in 8.0 mi East 5.8 mph - N/A   Scattered Clouds
8:51 PM 41.5 °F 37.8 °F 34.7 °F 77% 29.91 in 8.0 mi East 5.8 mph - N/A   Scattered Clouds
9:51 PM 41.0 °F 35.2 °F 34.2 °F 77% 29.88 in 8.0 mi South 9.2 mph - N/A   Mostly Cloudy
10:51 PM 41.9 °F 36.3 °F 34.7 °F 76% 29.86 in 8.0 mi South 9.2 mph - N/A   Overcast
11:51 PM 41.9 °F 36.3 °F 34.7 °F 76% 29.82 in 8.0 mi SSE 9.2 mph - N/A   Overcast